TimeMST,TemperatureF,Dew PointF,Humidity,Sea Level PressureIn,VisibilityMPH,Wind Direction,Wind SpeedMPH,Gust SpeedMPH,PrecipitationIn,Events,Conditions,WindDirDegrees,DateUTC
2:00 AM,36.1,21.7,56,30.14,-9999.0,NW,3.5,-,N/A,,Unknown,310,2013-02-02 09:00:00
3:00 AM,38.8,22.5,52,30.16,-9999.0,West,16.1,-,N/A,,Unknown,270,2013-02-02 10:00:00
4:00 AM,41.0,22.5,48,30.20,-9999.0,NNW,12.7,19.6,N/A,,Unknown,330,2013-02-02 11:00:00
5:00 AM,22,18,78,30.32,,NNW,6.9,,,,,340,2013-02-02 12:00:00
5:00 AM,21.7,18.0,85,30.32,-9999.0,NNW,6.9,-,N/A,,Unknown,340,2013-02-02 12:00:00
6:00 AM,25.5,20.3,81,30.35,-9999.0,NNW,4.6,-,N/A,,Unknown,330,2013-02-02 13:00:00
7:00 AM,19.0,15.6,87,30.39,-9999.0,West,2.3,-,N/A,,Unknown,270,2013-02-02 14:00:00
8:00 AM,22.5,19.4,88,30.37,-9999.0,SW,4.6,-,N/A,,Unknown,220,2013-02-02 15:00:00
9:00 AM,25.9,20.8,81,30.36,-9999.0,South,2.3,-,N/A,,Unknown,180,2013-02-02 16:00:00
10:00 AM,33.6,26.2,74,30.33,-9999.0,ESE,5.8,-,N/A,,Unknown,110,2013-02-02 17:00:00
11:00 AM,40,28,50,30.32,,SE,9.2,,,,,130,2013-02-02 18:00:00
11:00 AM,40.5,27.9,61,30.32,-9999.0,SE,9.2,-,N/A,,Unknown,130,2013-02-02 18:00:00
12:00 PM,49.6,18.9,30,30.25,-9999.0,West,21.9,27.6,N/A,,Unknown,260,2013-02-02 19:00:00
1:00 PM,51.8,17.6,26,30.19,-9999.0,West,25.3,32.2,N/A,,Unknown,260,2013-02-02 20:00:00
2:00 PM,51.4,19.0,28,30.16,-9999.0,West,23.0,31.1,N/A,,Unknown,260,2013-02-02 21:00:00
3:00 PM,50.9,18.1,27,30.16,-9999.0,WSW,23.0,29.9,N/A,,Unknown,250,2013-02-02 22:00:00
4:00 PM,47.8,18.7,31,30.20,-9999.0,West,19.6,26.5,N/A,,Unknown,270,2013-02-02 23:00:00
5:00 PM,45,20,24,30.19,,West,15.0,,,,,260,2013-02-03 00:00:00
5:00 PM,44.6,19.9,37,30.19,-9999.0,West,15.0,-,N/A,,Unknown,260,2013-02-03 00:00:00
6:00 PM,43.5,21.7,42,30.19,-9999.0,West,13.8,-,N/A,,Unknown,260,2013-02-03 01:00:00
7:00 PM,43.2,21.2,42,30.17,-9999.0,WSW,12.7,-,N/A,,Unknown,250,2013-02-03 02:00:00
8:00 PM,40.3,21.0,46,30.15,-9999.0,West,10.4,-,N/A,,Unknown,260,2013-02-03 03:00:00
9:00 PM,45.5,18.5,34,30.10,-9999.0,West,17.3,23.0,N/A,,Unknown,270,2013-02-03 04:00:00
10:00 PM,43.7,19.8,38,30.08,-9999.0,SW,13.8,19.6,N/A,,Unknown,220,2013-02-03 05:00:00
11:00 PM,36,21,42,30.04,,SSW,8.1,,,,,210,2013-02-03 06:00:00
11:00 PM,36.5,21.2,54,30.04,-9999.0,SSW,8.1,-,N/A,,Unknown,210,2013-02-03 06:00:00